Time,TemperatureF,DewpointF,PressureIn,WindDirection,WindDirectionDegrees,WindSpeedMPH,WindSpeedGustMPH,Humidity,HourlyPrecipIn,Conditions,Clouds,dailyrainin,SoftwareType,DateUTC
2013-05-20 00:10:00,49.2,46.0,29.87,NE,39,0.0,-999.0,87,-99.99,,,0.00,weatherlink.com 1.10,2013-05-20 04:10:00,
2013-05-20 00:25:00,49.1,46.0,29.87,NE,38,0.0,-999.0,88,-99.99,,,0.00,weatherlink.com 1.10,2013-05-20 04:25:00,
2013-05-20 00:40:00,49.2,46.0,29.87,NE,39,0.0,-999.0,88,-99.99,,,0.00,weatherlink.com 1.10,2013-05-20 04:40:00,
2013-05-20 00:55:00,49.0,45.0,29.87,ESE,121,0.0,-999.0,87,-99.99,,,0.00,weatherlink.com 1.10,2013-05-20 04:55:00,
2013-05-20 01:10:00,48.5,46.0,29.87,East,96,0.0,-999.0,89,-99.99,,,0.00,weatherlink.com 1.10,2013-05-20 05:10:00,
2013-05-20 01:24:00,48.2,46.0,29.87,East,95,0.0,-999.0,90,-99.99,,,0.00,weatherlink.com 1.10,2013-05-20 05:24:00,
2013-05-20 01:40:00,48.1,46.0,29.87,East,95,0.0,-999.0,91,-99.99,,,0.00,weatherlink.com 1.10,2013-05-20 05:40:00,
2013-05-20 01:55:00,48.1,46.0,29.86,ENE,61,3.0,-999.0,91,-99.99,,,0.00,weatherlink.com 1.10,2013-05-20 05:55:00,
2013-05-20 02:10:00,47.7,46.0,29.86,NE,38,0.0,-999.0,92,-99.99,,,0.00,weatherlink.com 1.10,2013-05-20 06:10:00,
2013-05-20 02:25:00,47.7,46.0,29.86,NE,38,1.0,-999.0,92,-99.99,,,0.00,weatherlink.com 1.10,2013-05-20 06:25:00,
2013-05-20 02:40:00,47.3,45.0,29.86,NE,38,0.0,-999.0,92,-99.99,,,0.00,weatherlink.com 1.10,2013-05-20 06:40:00,
2013-05-20 02:55:00,47.0,45.0,29.85,NE,38,0.0,-999.0,92,-99.99,,,0.00,weatherlink.com 1.10,2013-05-20 06:55:00,
2013-05-20 03:10:00,46.7,45.0,29.84,NE,51,0.0,-999.0,93,-99.99,,,0.00,weatherlink.com 1.10,2013-05-20 07:10:00,
2013-05-20 03:25:00,46.1,44.0,29.84,ENE,76,0.0,-999.0,93,-99.99,,,0.00,weatherlink.com 1.10,2013-05-20 07:25:00,
2013-05-20 03:40:00,45.4,43.0,29.85,NE,36,0.0,-999.0,92,-99.99,,,0.00,weatherlink.com 1.10,2013-05-20 07:40:00,
2013-05-20 03:55:00,45.0,43.0,29.84,NE,36,0.0,-999.0,93,-99.99,,,0.00,weatherlink.com 1.10,2013-05-20 07:55:00,
2013-05-20 04:10:00,44.9,43.0,29.84,NE,36,0.0,-999.0,93,-99.99,,,0.00,weatherlink.com 1.10,2013-05-20 08:10:00,
2013-05-20 04:25:00,45.0,43.0,29.84,NE,36,0.0,-999.0,93,-99.99,,,0.00,weatherlink.com 1.10,2013-05-20 08:25:00,
2013-05-20 04:40:00,45.4,44.0,29.84,NE,36,0.0,-999.0,94,-99.99,,,0.00,weatherlink.com 1.10,2013-05-20 08:40:00,
2013-05-20 04:55:00,45.8,44.0,29.84,NE,36,0.0,-999.0,94,-99.99,,,0.00,weatherlink.com 1.10,2013-05-20 08:55:00,
2013-05-20 05:10:00,46.3,44.0,29.83,NE,36,0.0,-999.0,93,-99.99,,,0.00,weatherlink.com 1.10,2013-05-20 09:10:00,
2013-05-20 05:24:00,46.3,44.0,29.83,NE,36,0.0,-999.0,93,-99.99,,,0.00,weatherlink.com 1.10,2013-05-20 09:24:00,
2013-05-20 05:40:00,46.4,45.0,29.83,NE,36,0.0,-999.0,93,-99.99,,,0.00,weatherlink.com 1.10,2013-05-20 09:40:00,
2013-05-20 05:55:00,46.5,44.0,29.81,NE,36,0.0,-999.0,92,-99.99,,,0.00,weatherlink.com 1.10,2013-05-20 09:55:00,
2013-05-20 06:10:00,46.4,44.0,29.81,NE,36,0.0,-999.0,92,-99.99,,,0.00,weatherlink.com 1.10,2013-05-20 10:10:00,
2013-05-20 06:25:00,46.6,45.0,29.83,NE,36,0.0,-999.0,93,-99.99,,,0.08,weatherlink.com 1.10,2013-05-20 10:25:00,
2013-05-20 06:40:00,46.9,45.0,29.82,NE,36,0.0,-999.0,93,-99.99,,,0.08,weatherlink.com 1.10,2013-05-20 10:40:00,
2013-05-20 06:55:00,46.8,45.0,29.79,NE,36,1.0,-999.0,93,-99.99,,,0.09,weatherlink.com 1.10,2013-05-20 10:55:00,
2013-05-20 07:10:00,46.6,45.0,29.77,NE,36,0.0,-999.0,93,-99.99,,,0.09,weatherlink.com 1.10,2013-05-20 11:10:00,
2013-05-20 07:25:00,45.5,44.0,29.78,South,175,2.0,-999.0,93,-99.99,,,0.09,weatherlink.com 1.10,2013-05-20 11:25:00,
2013-05-20 07:40:00,45.7,44.0,29.79,NE,55,0.0,-999.0,94,-99.99,,,0.10,weatherlink.com 1.10,2013-05-20 11:40:00,
2013-05-20 07:55:00,45.9,44.0,29.76,NE,55,0.0,-999.0,94,-99.99,,,0.10,weatherlink.com 1.10,2013-05-20 11:55:00,
2013-05-20 08:10:00,46.4,45.0,29.77,NE,55,0.0,-999.0,95,-99.99,,,0.10,weatherlink.com 1.10,2013-05-20 12:10:00,
2013-05-20 08:25:00,47.6,46.0,29.77,NE,55,0.0,-999.0,95,-99.99,,,0.10,weatherlink.com 1.10,2013-05-20 12:25:00,
2013-05-20 08:40:00,48.9,48.0,29.77,NE,55,1.0,-999.0,95,-99.99,,,0.10,weatherlink.com 1.10,2013-05-20 12:40:00,
2013-05-20 08:55:00,50.0,49.0,29.77,NE,55,0.0,-999.0,95,-99.99,,,0.10,weatherlink.com 1.10,2013-05-20 12:55:00,
2013-05-20 09:10:00,51.0,50.0,29.77,NE,55,0.0,-999.0,95,-99.99,,,0.10,weatherlink.com 1.10,2013-05-20 13:10:00,
2013-05-20 09:24:00,51.6,50.0,29.77,NE,55,0.0,-999.0,94,-99.99,,,0.10,weatherlink.com 1.10,2013-05-20 13:24:00,
2013-05-20 09:40:00,52.2,51.0,29.77,NE,55,0.0,-999.0,94,-99.99,,,0.10,weatherlink.com 1.10,2013-05-20 13:40:00,
2013-05-20 09:55:00,52.6,50.0,29.77,NE,55,0.0,-999.0,92,-99.99,,,0.10,weatherlink.com 1.10,2013-05-20 13:55:00,
2013-05-20 10:10:00,52.7,50.0,29.78,East,94,0.0,-999.0,91,-99.99,,,0.10,weatherlink.com 1.10,2013-05-20 14:10:00,
2013-05-20 10:25:00,51.9,49.0,29.79,East,94,0.0,-999.0,91,-99.99,,,0.10,weatherlink.com 1.10,2013-05-20 14:25:00,
2013-05-20 10:40:00,51.8,50.0,29.79,East,94,0.0,-999.0,92,-99.99,,,0.10,weatherlink.com 1.10,2013-05-20 14:40:00,
2013-05-20 10:55:00,52.8,51.0,29.78,East,94,0.0,-999.0,94,-99.99,,,0.10,weatherlink.com 1.10,2013-05-20 14:55:00,
2013-05-20 11:10:00,53.7,52.0,29.78,East,94,0.0,-999.0,95,-99.99,,,0.11,weatherlink.com 1.10,2013-05-20 15:10:00,
2013-05-20 11:25:00,58.1,57.0,29.77,ENE,63,0.0,-999.0,95,-99.99,,,0.11,weatherlink.com 1.10,2013-05-20 15:25:00,
2013-05-20 11:40:00,61.2,60.0,29.77,NE,38,2.0,-999.0,94,-99.99,,,0.11,weatherlink.com 1.10,2013-05-20 15:40:00,
2013-05-20 11:55:00,62.6,58.0,29.77,ENE,64,1.0,-999.0,86,-99.99,,,0.11,weatherlink.com 1.10,2013-05-20 15:55:00,
2013-05-20 12:10:00,61.8,57.0,29.77,NE,46,0.0,-999.0,83,-99.99,,,0.11,weatherlink.com 1.10,2013-05-20 16:10:00,
2013-05-20 12:25:00,58.9,54.0,29.77,NE,52,1.0,-999.0,83,-99.99,,,0.11,weatherlink.com 1.10,2013-05-20 16:25:00,
2013-05-20 12:40:00,56.8,52.0,29.77,North,355,0.0,-999.0,85,-99.99,,,0.11,weatherlink.com 1.10,2013-05-20 16:40:00,
2013-05-20 12:55:00,56.0,52.0,29.77,North,355,0.0,-999.0,86,-99.99,,,0.11,weatherlink.com 1.10,2013-05-20 16:55:00,
2013-05-20 13:10:00,55.5,51.0,29.76,North,5,2.0,-999.0,85,-99.99,,,0.11,weatherlink.com 1.10,2013-05-20 17:10:00,
2013-05-20 13:24:00,56.0,52.0,29.75,NNE,24,1.0,-999.0,86,-99.99,,,0.11,weatherlink.com 1.10,2013-05-20 17:24:00,
2013-05-20 13:40:00,57.0,53.0,29.74,NNE,24,0.0,-999.0,87,-99.99,,,0.11,weatherlink.com 1.10,2013-05-20 17:40:00,
2013-05-20 13:55:00,57.3,54.0,29.76,NNE,24,0.0,-999.0,87,-99.99,,,0.11,weatherlink.com 1.10,2013-05-20 17:55:00,
2013-05-20 14:10:00,57.3,53.0,29.76,NNE,24,1.0,-999.0,85,-99.99,,,0.11,weatherlink.com 1.10,2013-05-20 18:10:00,
2013-05-20 14:25:00,55.9,51.0,29.77,NNE,24,0.0,-999.0,84,-99.99,,,0.11,weatherlink.com 1.10,2013-05-20 18:25:00,
2013-05-20 14:40:00,54.0,50.0,29.77,NNE,24,0.0,-999.0,85,-99.99,,,0.11,weatherlink.com 1.10,2013-05-20 18:40:00,
2013-05-20 14:55:00,53.3,49.0,29.76,NNE,24,0.0,-999.0,86,-99.99,,,0.11,weatherlink.com 1.10,2013-05-20 18:55:00,
2013-05-20 15:10:00,53.5,50.0,29.75,NNE,28,0.0,-999.0,87,-99.99,,,0.11,weatherlink.com 1.10,2013-05-20 19:10:00,
2013-05-20 15:25:00,54.4,51.0,29.74,NNE,28,0.0,-999.0,87,-99.99,,,0.11,weatherlink.com 1.10,2013-05-20 19:25:00,
2013-05-20 15:40:00,56.7,52.0,29.73,NNE,28,1.0,-999.0,84,-99.99,,,0.11,weatherlink.com 1.10,2013-05-20 19:40:00,
2013-05-20 15:55:00,58.1,53.0,29.73,NNE,28,3.0,-999.0,82,-99.99,,,0.11,weatherlink.com 1.10,2013-05-20 19:55:00,
2013-05-20 16:10:00,56.9,51.0,29.73,NNE,33,3.0,-999.0,81,-99.99,,,0.11,weatherlink.com 1.10,2013-05-20 20:10:00,
2013-05-20 16:25:00,55.7,51.0,29.73,NNE,28,1.0,-999.0,83,-99.99,,,0.11,weatherlink.com 1.10,2013-05-20 20:25:00,
2013-05-20 16:40:00,55.1,50.0,29.73,NE,50,0.0,-999.0,84,-99.99,,,0.11,weatherlink.com 1.10,2013-05-20 20:40:00,
2013-05-20 16:55:00,53.7,49.0,29.74,NNE,28,3.0,-999.0,85,-99.99,,,0.11,weatherlink.com 1.10,2013-05-20 20:55:00,
2013-05-20 17:10:00,52.4,48.0,29.74,NE,34,2.0,-999.0,85,-99.99,,,0.11,weatherlink.com 1.10,2013-05-20 21:10:00,
2013-05-20 17:25:00,50.8,47.0,29.75,NE,44,0.0,-999.0,88,-99.99,,,0.11,weatherlink.com 1.10,2013-05-20 21:25:00,
2013-05-20 17:40:00,49.7,47.0,29.75,NE,36,2.0,-999.0,89,-99.99,,,0.11,weatherlink.com 1.10,2013-05-20 21:40:00,
2013-05-20 17:55:00,49.6,46.0,29.75,NNE,31,3.0,-999.0,88,-99.99,,,0.11,weatherlink.com 1.10,2013-05-20 21:55:00,
2013-05-20 18:10:00,48.9,47.0,29.75,NE,34,0.0,-999.0,92,-99.99,,,0.11,weatherlink.com 1.10,2013-05-20 22:10:00,
2013-05-20 18:25:00,48.7,46.0,29.75,NE,49,0.0,-999.0,90,-99.99,,,0.11,weatherlink.com 1.10,2013-05-20 22:25:00,
2013-05-20 18:40:00,48.7,46.0,29.74,ENE,57,0.0,-999.0,91,-99.99,,,0.11,weatherlink.com 1.10,2013-05-20 22:40:00,
2013-05-20 18:55:00,49.4,47.0,29.74,ENE,57,0.0,-999.0,91,-99.99,,,0.11,weatherlink.com 1.10,2013-05-20 22:55:00,
2013-05-20 19:10:00,50.5,48.0,29.74,ENE,57,0.0,-999.0,90,-99.99,,,0.11,weatherlink.com 1.10,2013-05-20 23:10:00,
2013-05-20 19:25:00,50.9,48.0,29.75,ENE,57,0.0,-999.0,88,-99.99,,,0.11,weatherlink.com 1.10,2013-05-20 23:25:00,
2013-05-20 19:40:00,50.3,47.0,29.75,NE,56,1.0,-999.0,88,-99.99,,,0.11,weatherlink.com 1.10,2013-05-20 23:40:00,
2013-05-20 19:55:00,49.3,46.0,29.75,NNE,21,2.0,-999.0,88,-99.99,,,0.11,weatherlink.com 1.10,2013-05-20 23:55:00,
2013-05-20 20:10:00,47.5,45.0,29.75,NNE,26,0.0,-999.0,90,-99.99,,,0.11,weatherlink.com 1.10,2013-05-21 00:10:00,
2013-05-20 20:25:00,46.9,45.0,29.75,NNE,30,2.0,-999.0,92,-99.99,,,0.11,weatherlink.com 1.10,2013-05-21 00:25:00,
2013-05-20 20:40:00,46.3,44.0,29.76,ENE,59,0.0,-999.0,92,-99.99,,,0.11,weatherlink.com 1.10,2013-05-21 00:40:00,
2013-05-20 20:55:00,46.0,44.0,29.75,ENE,59,0.0,-999.0,92,-99.99,,,0.11,weatherlink.com 1.10,2013-05-21 00:55:00,
2013-05-20 21:10:00,46.3,44.0,29.74,ENE,59,0.0,-999.0,93,-99.99,,,0.11,weatherlink.com 1.10,2013-05-21 01:10:00,
2013-05-20 21:25:00,46.5,45.0,29.74,ENE,59,0.0,-999.0,93,-99.99,,,0.11,weatherlink.com 1.10,2013-05-21 01:25:00,
2013-05-20 21:40:00,46.9,45.0,29.73,ENE,59,0.0,-999.0,93,-99.99,,,0.11,weatherlink.com 1.10,2013-05-21 01:40:00,
2013-05-20 21:55:00,46.8,45.0,29.74,ENE,59,0.0,-999.0,93,-99.99,,,0.11,weatherlink.com 1.10,2013-05-21 01:55:00,
2013-05-20 22:10:00,46.8,45.0,29.75,ENE,59,0.0,-999.0,93,-99.99,,,0.11,weatherlink.com 1.10,2013-05-21 02:10:00,
2013-05-20 22:25:00,47.2,46.0,29.75,ENE,59,0.0,-999.0,94,-99.99,,,0.11,weatherlink.com 1.10,2013-05-21 02:25:00,
2013-05-20 22:40:00,47.7,46.0,29.75,ENE,59,0.0,-999.0,94,-99.99,,,0.11,weatherlink.com 1.10,2013-05-21 02:40:00,
2013-05-20 22:55:00,48.1,47.0,29.75,ENE,59,0.0,-999.0,94,-99.99,,,0.11,weatherlink.com 1.10,2013-05-21 02:55:00,
2013-05-20 23:10:00,48.8,47.0,29.75,ENE,59,0.0,-999.0,94,-99.99,,,0.11,weatherlink.com 1.10,2013-05-21 03:10:00,
2013-05-20 23:25:00,50.0,48.0,29.74,NE,53,3.0,-999.0,94,-99.99,,,0.11,weatherlink.com 1.10,2013-05-21 03:25:00,
2013-05-20 23:40:00,50.4,49.0,29.74,NE,45,0.0,-999.0,93,-99.99,,,0.11,weatherlink.com 1.10,2013-05-21 03:40:00,
2013-05-20 23:55:00,50.6,49.0,29.74,NE,45,0.0,-999.0,93,-99.99,,,0.11,weatherlink.com 1.10,2013-05-21 03:55:00,